Wind_Speed
3 3 3 3 4 4 4 3 3 2 2 2 1 1 1 1 1 1 2 2 2 2 2 2 2 3 3 3 4 4 4 4 4 4 5 5 5 6 6 7 7 7 7 7 7 7 8 8 8
4 3 3 3 4 4 4 4 4 3 3 3 2 2 2 1 1 1 2 2 2 2 2 2 3 3 3 3 4 4 4 4 4 5 5 5 6 6 7 7 7 7 7 7 7 7 8 9 9
4 4 4 4 4 4 4 3 3 3 3 3 3 3 2 3 2 2 2 2 2 2 2 3 3 3 3 4 4 4 4 4 5 5 6 6 6 6 7 8 8 8 8 8 8 8 8 8 9
5 4 4 4 4 4 3 3 3 3 3 3 3 3 3 3 3 3 3 3 3 3 3 3 4 4 4 4 5 5 5 5 5 5 6 6 6 6 7 8 8 8 9 9 9 9 8 8 9
4 4 4 5 4 3 3 3 2 2 2 3 3 3 3 4 4 4 4 4 4 4 4 4 5 5 5 5 6 6 6 6 6 6 6 7 7 7 7 8 9 9 9 10 10 10 10 10 9
4 4 5 4 3 3 3 1 1 1 2 3 3 3 3 4 4 4 4 4 5 5 5 5 5 6 6 6 6 7 6 6 6 7 7 7 8 8 8 8 9 9 10 10 10 10 11 11 11
5 4 4 4 3 3 3 2 2 3 2 3 3 3 4 4 4 4 5 5 5 5 5 6 6 6 6 7 7 7 7 7 7 7 8 8 8 8 9 9 9 10 11 11 11 11 11 11 11
5 5 4 3 3 3 2 2 2 2 2 2 3 3 3 3 4 4 4 5 5 5 5 6 7 7 7 7 8 8 8 8 8 8 8 9 8 8 9 10 10 10 11 11 12 12 12 12 11
5 5 4 3 3 2 2 2 2 2 2 2 3 3 3 3 3 4 4 5 5 5 5 6 7 7 7 8 8 8 8 8 8 9 9 9 9 9 9 10 11 10 10 11 11 12 13 13 13
5 5 3 2 2 2 3 3 2 2 2 3 3 3 3 3 3 4 4 5 5 5 5 6 7 7 7 8 9 9 8 8 9 9 9 9 9 9 10 10 11 11 11 11 12 12 12 13 14
5 5 4 3 3 3 3 2 2 2 3 3 3 3 3 3 3 4 4 5 5 6 6 6 8 8 8 8 9 9 9 9 9 10 10 10 10 10 11 11 11 12 12 12 12 12 13 13 14
6 5 5 4 3 4 3 3 3 3 3 3 3 3 4 4 4 4 5 5 5 6 6 6 7 8 9 9 9 9 9 10 10 10 9 10 10 11 11 12 12 12 13 13 13 13 14 13 13
5 5 5 4 4 4 4 3 3 3 4 4 4 4 4 4 4 5 5 6 5 6 6 7 7 8 8 8 9 9 9 10 10 10 10 11 11 11 11 12 13 13 12 13 13 14 14 14 14
5 5 5 4 4 4 4 3 3 4 4 4 5 4 4 5 5 5 6 7 6 6 7 7 7 8 8 8 9 9 9 10 10 11 11 11 12 12 12 12 12 12 12 13 14 14 14 14 14
6 6 6 5 4 4 4 4 4 4 4 5 5 5 5 5 6 6 7 7 7 7 7 7 7 8 8 9 9 9 10 10 11 11 11 11 12 12 13 12 12 12 13 13 14 14 15 14 15
7 7 7 7 5 5 5 5 5 5 5 5 5 6 6 6 7 8 8 8 8 7 8 8 8 8 9 9 10 10 10 10 11 11 11 12 12 13 13 12 12 12 13 13 14 14 15 14 15
8 8 8 8 7 6 6 6 6 5 5 5 6 7 7 7 8 8 9 9 9 9 10 10 9 9 9 10 10 11 11 11 11 11 11 12 13 13 13 13 13 13 13 13 13 14 15 15 15
9 8 8 7 7 7 7 7 6 6 6 6 6 7 8 8 8 9 10 10 10 10 11 11 11 11 10 11 11 11 12 12 12 12 12 13 13 13 13 14 14 14 14 14 14 14 15 15 16
9 9 8 7 7 7 8 8 7 7 7 7 7 8 8 9 9 10 11 11 11 11 11 11 12 11 11 12 12 12 13 13 13 13 13 14 14 14 15 15 15 15 15 15 15 15 15 16 16
10 9 9 9 9 9 8 8 8 9 8 8 8 8 9 9 10 11 11 11 11 11 11 12 12 12 12 12 12 13 13 13 13 13 14 14 15 15 16 16 16 15 15 16 16 16 16 16 16
10 10 10 10 10 9 10 9 9 9 9 9 9 8 9 9 9 10 11 11 11 11 12 12 11 12 12 12 12 12 12 13 13 14 15 15 15 15 15 16 16 15 15 16 17 17 17 16 16
11 11 11 11 11 11 11 11 10 10 10 9 9 9 9 10 10 10 11 11 11 11 11 11 11 11 11 12 12 12 12 13 14 15 15 15 16 16 15 15 16 16 16 16 16 16 17 17 17
10 11 12 12 11 11 12 11 9 10 10 10 9 9 10 10 10 10 11 11 11 11 12 11 11 11 12 12 12 12 13 13 14 15 15 15 16 15 15 16 16 16 16 16 16 16 17 17 17
11 11 11 11 11 11 12 12 9 9 9 9 9 9 9 9 10 11 11 11 11 11 11 12 12 12 12 12 12 12 13 13 14 15 15 15 15 15 16 16 16 17 16 16 17 17 18 17 17
11 11 11 12 11 11 12 11 9 9 9 9 9 9 9 10 10 12 12 12 12 12 12 12 13 13 13 13 13 14 14 14 15 15 15 15 15 15 15 16 16 16 17 17 18 18 18 18 18
10 11 12 12 12 11 12 12 10 10 9 10 10 9 9 10 11 12 13 13 14 14 13 14 14 15 14 14 15 15 15 15 15 15 15 15 15 15 15 16 16 16 17 18 18 19 19 19 19
11 11 12 13 13 13 13 12 12 11 11 11 11 10 10 11 12 13 14 14 15 15 15 15 15 15 15 16 15 16 16 17 16 16 16 16 16 16 16 17 16 16 17 17 18 18 19 19 19
13 13 13 14 15 14 14 14 13 13 12 12 12 11 11 13 14 14 14 15 16 16 16 16 16 17 17 17 18 18 17 17 18 18 17 18 18 18 18 18 17 17 17 18 17 18 19 20 19
15 15 15 15 16 16 15 14 14 15 15 14 14 13 13 14 15 15 15 16 17 17 17 18 17 18 18 19 19 19 18 19 18 18 18 19 19 18 19 18 18 18 18 18 17 18 19 20 20
16 16 16 16 16 16 17 15 16 17 17 16 16 15 15 15 15 16 16 17 18 19 19 19 19 19 19 20 20 20 19 19 19 19 19 19 19 18 19 18 18 18 18 18 18 18 19 20 21
Wind_Direction
256 265 269 265 261 262 260 254 251 252 255 259 264 275 277 268 270 237 231 248 262 275 281 272 268 268 271 267 264 250 240 239 244 242 245 249 252 252 246 244 246 243 244 247 250 246 242 234 228
267 270 270 267 259 256 250 249 248 240 241 249 258 266 258 266 267 242 241 255 255 259 267 273 272 269 270 274 264 254 249 252 253 252 253 258 260 253 251 248 251 249 247 249 252 251 249 240 232
275 272 273 271 264 260 248 245 244 252 244 248 257 263 266 270 267 255 260 257 246 254 263 263 275 275 269 265 268 264 265 270 269 267 261 262 263 257 255 256 259 258 257 252 252 253 252 245 239
271 271 272 272 264 259 262 249 237 259 255 252 261 270 264 264 260 261 267 263 255 259 272 276 274 275 269 261 262 268 272 275 274 275 270 268 265 260 259 257 256 258 258 257 253 252 252 251 245
266 273 276 272 263 261 264 263 243 242 255 251 255 266 266 262 262 264 272 269 263 262 263 264 267 270 272 271 270 271 272 273 273 274 274 272 268 264 262 259 257 257 260 261 258 255 254 253 253
266 271 275 268 249 253 257 267 284 273 249 245 252 261 262 261 263 265 265 268 271 270 266 261 261 264 268 270 273 272 271 272 271 272 272 272 268 266 265 267 265 260 259 259 259 259 258 256 256
263 272 266 261 249 261 262 247 266 283 265 259 259 266 267 262 260 261 268 271 272 272 269 264 264 264 262 265 272 274 272 271 271 273 273 273 270 266 266 265 268 265 263 262 260 260 259 254 253
263 263 261 256 262 268 258 249 256 267 282 280 273 269 273 270 263 260 274 274 271 271 267 264 262 264 263 264 269 273 273 271 274 276 277 274 273 271 266 262 269 269 266 263 259 257 257 253 252
263 263 262 266 272 273 262 264 265 264 286 289 286 286 283 275 273 273 285 274 268 270 273 272 270 271 269 268 270 274 277 277 279 281 281 282 277 274 273 270 269 269 268 264 258 255 254 252 251
256 254 258 254 261 275 280 280 283 267 283 287 293 293 289 284 292 295 292 287 277 279 280 277 275 276 279 278 275 274 276 280 281 284 284 283 277 273 274 276 273 271 268 263 258 255 254 254 253
255 256 260 260 254 267 274 279 284 278 276 284 296 301 301 303 299 294 290 293 286 283 281 281 278 274 277 278 279 277 281 282 279 284 284 281 277 276 276 276 275 272 267 263 258 255 256 256 256
257 256 257 252 256 256 252 258 277 277 280 286 293 298 301 302 301 294 290 296 294 291 288 289 286 281 278 279 282 280 284 286 283 282 283 282 278 276 276 275 274 275 270 263 258 257 258 258 257
253 252 250 250 258 257 251 251 267 270 274 284 290 293 296 299 306 306 300 301 296 292 296 294 291 287 283 282 283 283 283 284 283 283 280 281 281 280 280 276 273 275 270 264 260 258 259 259 259
248 247 253 254 250 244 246 258 269 275 278 284 291 295 298 296 297 298 298 293 293 294 295 294 293 289 285 286 285 284 283 283 283 282 279 278 279 281 280 278 275 273 271 265 260 259 261 261 259
256 252 251 254 251 251 258 266 275 274 274 284 295 296 295 294 295 299 298 295 290 291 293 290 290 287 288 288 287 287 287 286 284 282 281 280 282 281 278 276 277 276 274 268 263 262 261 261 261
250 255 254 252 250 256 266 275 281 281 277 281 293 296 296 297 298 298 299 299 298 295 294 292 289 287 286 287 286 286 287 288 288 286 283 281 282 282 278 276 276 276 276 273 267 265 262 262 263
250 256 258 257 255 261 264 268 275 277 278 282 289 291 292 295 300 299 299 299 297 297 294 290 286 287 286 287 287 285 285 289 291 290 286 284 281 279 277 274 274 275 275 273 270 267 265 265 264
254 258 260 259 259 261 263 268 268 273 279 279 278 282 286 290 297 300 301 300 299 301 300 292 286 286 286 287 288 288 287 289 288 289 288 286 283 280 276 273 272 272 272 271 270 268 266 265 264
251 256 262 265 266 266 263 267 267 269 272 278 278 281 283 288 293 294 297 299 300 302 303 299 296 294 291 289 289 289 289 290 288 288 285 284 282 280 277 273 271 269 268 268 267 267 266 265 265
249 254 261 264 265 265 264 266 268 273 277 278 284 286 289 288 288 291 292 294 296 299 299 300 298 295 294 293 292 292 292 291 291 290 287 285 282 279 277 273 271 268 269 267 264 264 265 265 265
255 259 263 266 266 270 273 269 266 269 273 277 277 283 291 291 290 293 292 291 293 297 299 300 299 297 295 294 295 295 294 294 293 293 290 286 283 281 277 274 270 268 269 269 267 263 262 263 263
258 262 263 265 265 267 271 270 265 268 273 277 280 283 291 294 295 296 298 297 296 297 298 298 297 297 295 294 295 295 297 296 295 294 292 288 285 282 278 274 270 269 269 269 269 265 263 264 263
258 260 262 265 268 268 267 269 269 273 271 277 284 286 290 292 295 298 299 298 297 298 298 296 292 294 296 295 296 297 298 300 299 298 294 291 287 284 279 274 272 271 269 268 266 264 265 264 263
257 258 263 267 269 269 269 271 271 271 272 276 286 287 285 290 294 296 296 294 295 296 296 294 292 293 293 294 295 297 298 300 300 300 297 294 289 284 280 275 272 271 270 269 267 265 265 264 262
257 258 264 267 268 271 273 276 279 272 277 286 294 295 293 292 296 297 295 293 292 292 292 292 291 291 293 293 294 296 298 299 300 300 298 295 291 287 283 278 276 275 273 272 270 267 265 263 262
259 260 263 267 270 274 275 279 281 279 282 289 293 297 297 297 295 296 298 296 293 292 292 292 291 291 291 292 293 294 297 300 301 300 298 296 292 289 287 283 279 278 275 274 272 268 265 263 261
257 260 265 269 272 275 278 281 282 282 284 288 290 294 295 295 295 296 297 297 294 294 295 293 291 290 291 291 291 291 293 295 297 299 297 295 293 291 287 284 282 279 277 276 274 270 266 263 262
257 259 264 270 273 276 277 277 281 281 283 282 284 289 292 293 294 294 294 293 292 292 292 293 290 289 289 290 291 292 293 293 294 296 294 291 290 289 287 285 284 284 281 280 276 271 267 266 265
261 264 268 271 269 272 275 276 278 280 282 283 286 288 289 292 291 290 290 290 289 289 290 291 290 291 291 292 292 291 292 294 296 296 294 291 288 287 285 284 284 284 283 281 277 273 270 268 267
262 265 266 268 268 272 275 275 276 278 279 283 287 289 290 290 289 289 290 289 288 288 289 289 289 291 291 291 293 293 293 294 294 294 293 292 288 286 284 282 281 281 282 280 278 275 272 269 269
Height
5866 5866 5866 5867 5868 5867 5866 5866 5866 5865 5865 5865 5865 5865 5865 5866 5866 5868 5866 5865 5865 5865 5865 5865 5865 5865 5865 5865 5865 5865 5866 5866 5866 5866 5866 5866 5866 5867 5867 5867 5867 5867 5867 5867 5867 5867 5867 5868 5868
5865 5866 5866 5866 5866 5865 5866 5865 5864 5865 5865 5864 5864 5864 5864 5864 5865 5865 5864 5864 5864 5864 5864 5864 5864 5864 5864 5864 5864 5865 5865 5865 5865 5865 5865 5865 5865 5865 5866 5866 5866 5866 5866 5866 5866 5866 5866 5866 5867
5865 5865 5866 5865 5865 5865 5865 5864 5863 5863 5863 5863 5864 5864 5864 5864 5864 5863 5863 5863 5863 5863 5863 5863 5863 5863 5863 5863 5864 5864 5864 5864 5864 5864 5864 5864 5864 5864 5864 5864 5864 5865 5865 5865 5865 5865 5865 5864 5865
5865 5865 5865 5865 5864 5864 5863 5863 5862 5862 5862 5862 5863 5863 5863 5863 5863 5862 5862 5862 5862 5862 5862 5862 5862 5862 5862 5863 5863 5863 5863 5863 5863 5863 5863 5863 5863 5863 5863 5863 5863 5863 5863 5863 5863 5863 5864 5863 5864
5864 5864 5864 5863 5863 5862 5862 5861 5861 5861 5861 5861 5862 5861 5861 5862 5861 5861 5861 5861 5861 5861 5861 5861 5861 5861 5861 5861 5862 5862 5862 5862 5862 5862 5862 5862 5861 5861 5861 5861 5861 5861 5861 5861 5861 5862 5862 5862 5862
5863 5863 5863 5862 5862 5861 5861 5860 5860 5860 5860 5860 5861 5860 5860 5860 5860 5860 5860 5860 5860 5860 5860 5860 5860 5860 5860 5860 5860 5860 5860 5860 5860 5860 5860 5860 5860 5860 5860 5860 5859 5859 5859 5859 5859 5860 5860 5860 5860
5862 5862 5861 5861 5861 5860 5860 5860 5860 5859 5859 5859 5859 5859 5859 5859 5859 5859 5859 5859 5859 5859 5859 5859 5859 5859 5859 5859 5859 5859 5859 5859 5858 5858 5858 5858 5858 5858 5858 5858 5857 5857 5857 5857 5857 5858 5858 5858 5859
5860 5861 5860 5860 5860 5860 5859 5859 5859 5859 5858 5858 5858 5858 5858 5858 5858 5858 5857 5857 5857 5857 5857 5857 5857 5857 5857 5857 5857 5857 5857 5857 5856 5856 5856 5856 5856 5855 5855 5855 5855 5855 5855 5855 5855 5855 5856 5856 5856
5859 5860 5859 5859 5859 5859 5858 5858 5858 5858 5857 5857 5857 5857 5857 5856 5856 5856 5856 5856 5856 5855 5855 5855 5855 5855 5855 5855 5855 5855 5855 5855 5854 5854 5854 5854 5853 5853 5853 5853 5853 5853 5852 5852 5853 5853 5853 5854 5854
5858 5858 5858 5858 5858 5857 5857 5857 5857 5856 5856 5856 5856 5856 5855 5855 5855 5855 5855 5854 5854 5854 5853 5853 5853 5853 5852 5852 5852 5852 5853 5853 5852 5852 5852 5851 5851 5851 5851 5850 5850 5850 5850 5850 5850 5850 5851 5851 5851
5856 5857 5857 5857 5857 5856 5856 5856 5856 5855 5855 5855 5855 5854 5854 5854 5854 5854 5853 5853 5852 5852 5852 5851 5851 5851 5850 5850 5850 5850 5850 5850 5850 5850 5849 5849 5849 5848 5848 5848 5847 5847 5847 5847 5847 5848 5848 5848 5849
5855 5855 5855 5855 5855 5855 5855 5855 5855 5854 5854 5854 5854 5853 5853 5853 5853 5852 5852 5852 5851 5851 5850 5849 5849 5848 5848 5848 5848 5848 5848 5847 5847 5847 5846 5846 5846 5846 5845 5845 5845 5844 5844 5844 5844 5845 5845 5845 5845
5854 5854 5854 5854 5853 5853 5853 5853 5853 5853 5853 5853 5852 5852 5852 5851 5851 5851 5850 5850 5849 5849 5848 5847 5847 5846 5846 5846 5846 5846 5845 5845 5844 5844 5843 5843 5843 5843 5842 5842 5842 5841 5841 5841 5841 5841 5842 5842 5842
5852 5852 5852 5852 5852 5852 5852 5852 5852 5852 5852 5851 5851 5851 5850 5850 5849 5849 5849 5848 5847 5847 5846 5845 5844 5844 5843 5843 5843 5843 5842 5842 5842 5841 5840 5840 5840 5840 5839 5839 5839 5838 5838 5837 5838 5838 5838 5839 5839
5850 5850 5850 5850 5850 5850 5851 5851 5851 5850 5850 5850 5850 5849 5849 5848 5848 5847 5847 5846 5845 5844 5844 5843 5842 5841 5841 5840 5840 5840 5839 5839 5838 5838 5837 5837 5836 5836 5836 5836 5835 5835 5834 5834 5834 5834 5835 5835 5835
5848 5849 5849 5848 5848 5848 5850 5849 5849 5848 5848 5848 5848 5848 5847 5847 5846 5845 5844 5843 5843 5842 5841 5840 5839 5839 5838 5837 5837 5837 5836 5836 5835 5835 5834 5833 5833 5832 5832 5832 5832 5832 5831 5831 5831 5831 5831 5831 5832
5846 5846 5846 5846 5846 5846 5847 5847 5847 5846 5846 5846 5846 5846 5845 5845 5844 5843 5842 5841 5841 5840 5839 5838 5837 5836 5835 5835 5834 5833 5833 5833 5832 5831 5830 5830 5829 5829 5828 5828 5828 5828 5828 5827 5827 5827 5827 5828 5828
5844 5844 5844 5844 5844 5844 5845 5845 5845 5844 5844 5844 5844 5844 5843 5842 5842 5841 5840 5839 5838 5837 5836 5835 5834 5833 5833 5832 5831 5830 5829 5829 5828 5827 5827 5826 5825 5825 5824 5824 5824 5824 5824 5824 5823 5823 5823 5824 5824
5841 5841 5841 5842 5842 5842 5842 5842 5842 5842 5841 5842 5842 5841 5841 5840 5839 5838 5837 5836 5835 5834 5833 5832 5831 5830 5829 5828 5827 5827 5826 5825 5824 5823 5823 5822 5821 5821 5820 5820 5820 5820 5820 5820 5819 5819 5819 5820 5820
5838 5839 5839 5839 5839 5839 5839 5840 5839 5839 5839 5839 5839 5839 5838 5838 5837 5836 5834 5833 5832 5832 5831 5829 5828 5827 5826 5825 5824 5823 5822 5821 5820 5819 5819 5818 5817 5816 5815 5815 5815 5815 5815 5815 5815 5815 5815 5815 5816
5836 5836 5836 5836 5837 5836 5837 5837 5837 5836 5836 5836 5836 5836 5835 5834 5834 5832 5831 5830 5829 5828 5827 5826 5824 5823 5822 5822 5821 5820 5819 5817 5817 5815 5814 5813 5812 5811 5811 5810 5810 5810 5810 5810 5810 5810 5811 5811 5811
5833 5833 5833 5833 5834 5834 5834 5834 5834 5833 5833 5833 5833 5832 5832 5831 5830 5829 5828 5827 5826 5825 5824 5823 5821 5820 5819 5818 5818 5816 5815 5814 5813 5811 5810 5808 5807 5806 5806 5806 5806 5806 5806 5806 5805 5806 5806 5806 5806
5830 5830 5830 5830 5830 5831 5830 5830 5831 5830 5829 5829 5829 5829 5829 5828 5827 5826 5825 5824 5823 5822 5821 5820 5819 5817 5816 5815 5814 5813 5812 5810 5809 5807 5806 5804 5803 5801 5801 5801 5801 5801 5801 5801 5801 5801 5801 5801 5801
5827 5828 5827 5827 5827 5828 5827 5827 5828 5827 5826 5826 5826 5826 5825 5825 5824 5823 5822 5821 5820 5819 5818 5817 5815 5814 5813 5812 5811 5810 5808 5807 5805 5803 5801 5800 5798 5797 5796 5796 5796 5796 5796 5796 5796 5796 5796 5796 5796
5824 5825 5825 5824 5824 5825 5824 5823 5825 5824 5824 5823 5823 5822 5822 5821 5820 5819 5818 5817 5816 5816 5815 5814 5812 5811 5810 5809 5808 5806 5804 5803 5801 5799 5797 5796 5794 5793 5792 5792 5791 5791 5791 5791 5791 5791 5791 5791 5791
5821 5822 5823 5822 5821 5822 5821 5820 5822 5821 5821 5820 5819 5819 5818 5818 5817 5816 5815 5814 5813 5812 5811 5810 5809 5808 5806 5805 5804 5802 5801 5799 5797 5795 5794 5792 5791 5790 5789 5788 5787 5787 5786 5786 5785 5785 5785 5786 5786
5818 5818 5819 5818 5817 5817 5817 5817 5817 5817 5817 5816 5816 5816 5815 5814 5813 5812 5811 5810 5809 5808 5807 5806 5805 5804 5802 5801 5800 5798 5797 5795 5793 5792 5790 5788 5787 5786 5785 5784 5783 5782 5782 5781 5780 5780 5780 5780 5780
5815 5815 5814 5814 5813 5813 5814 5813 5814 5813 5812 5813 5813 5812 5811 5811 5810 5808 5807 5806 5805 5804 5803 5802 5801 5800 5798 5797 5795 5794 5792 5791 5789 5787 5786 5784 5782 5781 5780 5779 5778 5777 5777 5776 5775 5774 5774 5774 5775
5811 5811 5810 5810 5810 5810 5809 5812 5810 5809 5808 5808 5808 5807 5807 5807 5806 5805 5803 5802 5801 5800 5799 5798 5796 5795 5794 5792 5790 5789 5787 5786 5784 5782 5781 5779 5777 5776 5775 5774 5773 5772 5771 5771 5770 5769 5769 5769 5769
5806 5806 5806 5806 5806 5805 5805 5809 5805 5805 5804 5803 5803 5803 5802 5802 5801 5800 5799 5798 5797 5795 5794 5793 5792 5790 5789 5787 5786 5784 5782 5780 5779 5777 5775 5774 5772 5771 5770 5769 5768 5767 5766 5765 5764 5763 5763 5763 5763